This is the latest recevied weather packets stored in our database for station/object SQ6RR-11. If no packets are shown the sender has not sent any weather packets the latest 10 day(s).
| Time | Temp. | Humidity | Pressure | Rain* | Wind** | Luminosity | Snow |
|---|---|---|---|---|---|---|---|
| 1777478333 | 8.33° C | 21% | 1028.9 hPa | 0 mm | - | - | - |
| 1777478045 | 8.33° C | 21% | 1029 hPa | 0 mm | - | - | - |
| 1777477787 | 8.89° C | 19% | 1029 hPa | 0 mm | - | - | - |
| 1777477512 | 9.44° C | 20% | 1028.9 hPa | 0 mm | - | - | - |
| 1777477238 | 10.56° C | 19% | 1029 hPa | 0 mm | - | - | - |
| 1777476971 | 11.11° C | 20% | 1028.9 hPa | 0 mm | - | - | - |
| 1777476700 | 9.44° C | 19% | 1028.9 hPa | 0 mm | - | - | - |
| 1777476431 | 10° C | 18% | 1028.9 hPa | 0 mm | - | - | - |
| 1777476174 | 10.56° C | 18% | 1028.8 hPa | 0 mm | - | - | - |
| 1777475898 | 10.56° C | 18% | 1028.8 hPa | 0 mm | - | - | - |
| 1777475613 | 10.56° C | 18% | 1028.9 hPa | 0 mm | - | - | - |
| 1777475338 | 10.56° C | 19% | 1028.8 hPa | 0 mm | - | - | - |
| 1777475042 | 9.44° C | 19% | 1029 hPa | 0 mm | - | - | - |
| 1777474773 | 9.44° C | 17% | 1029.1 hPa | 0 mm | - | - | - |
| 1777474518 | 10.56° C | 18% | 1028.9 hPa | 0 mm | - | - | - |
| 1777474243 | 11.11° C | 19% | 1028.8 hPa | 0 mm | - | - | - |
| 1777473976 | 10.56° C | 18% | 1028.8 hPa | 0 mm | - | - | - |
| 1777473716 | 10.56° C | 18% | 1028.8 hPa | 0 mm | - | - | - |
| 1777473458 | 10.56° C | 19% | 1028.9 hPa | 0 mm | - | - | - |
| 1777473192 | 10.56° C | 18% | 1028.8 hPa | 0 mm | - | - | - |
| 1777472909 | 11.11° C | 18% | 1028.8 hPa | 0 mm | - | - | - |
| 1777472636 | 10.56° C | 18% | 1028.8 hPa | 0 mm | - | - | - |
| 1777472377 | 10.56° C | 18% | 1028.8 hPa | 0 mm | - | - | - |
| 1777472098 | 10.56° C | 18% | 1028.8 hPa | 0 mm | - | - | - |
| 1777471820 | 11.67° C | 18% | 1028.8 hPa | 0 mm | - | - | - |
* Rain latest hour (hover to see other rain measurements)
** Current wind speed in m/s (hover to see current wind gust speed)